Hourly Data Report for October 12, 2015

All times are specified in Local Standard Time (LST). Add 1 hour to adjust for Daylight Saving Time where and when it is observed.

FREDERICTON
NEW BRUNSWICK

45°52'08.000" N
66°32'14.000" W
20.70 m
8101505
71700
YFC

Download Data

Hourly Data (October 2015)
Hourly Data Report for October 12, 2015
Temp Definition
°C
Dew Point Temp Definition
°C
Rel Hum Definition
%
Wind Dir Definition
10's deg

Wind Spd Definition
km/h
Visibility Definition
km
Stn Press Definition
kPa
Hmdx Definition


Wind Chill Definition


Weather Definition


TIME
00:00 Legend Double Dagger 8.7 7.8 94 20 5 16.1 100.56     LegendNANA
01:00 Legend Double Dagger 8.7 8.0 95 20 4 16.1 100.58     LegendNANA
02:00 Legend Double Dagger 9.0 8.4 96 19 4 16.1 100.61     LegendNANA
03:00 Legend Double Dagger 9.1 8.7 97 19 8 16.1 100.60     LegendNANA
04:00 Legend Double Dagger 9.4 8.7 95   0 16.1 100.55     LegendNANA
05:00 Legend Double Dagger 9.2 8.5 95   0 16.1 100.56     LegendNANA
06:00 Legend Double Dagger 9.2 8.6 96   0 16.1 100.61     LegendNANA
07:00 Legend Double Dagger 9.1 8.7 97   0 16.1 100.64     LegendNANA
08:00 Legend Double Dagger 10.3 9.4 94 LegendMM 4 16.1 100.68     LegendNANA
09:00 Legend Double Dagger 12.1 9.9 87 19 5 16.1 100.70     LegendNANA
10:00 Legend Double Dagger 13.9 10.2 78 22 5 16.1 100.72     LegendNANA
11:00 Legend Double Dagger 15.1 10.5 74 23 5 16.1 100.71     LegendNANA
12:00 Legend Double Dagger 16.8 11.0 69 15 11 16.1 100.68     LegendNANA
13:00 Legend Double Dagger 18.6 10.3 58 16 8 16.1 100.61     LegendNANA
14:00 Legend Double Dagger 19.5 10.1 54 22 15 16.1 100.59     LegendNANA
15:00 Legend Double Dagger 19.5 10.8 57 21 5 16.1 100.57     LegendNANA
16:00 Legend Double Dagger 19.9 11.5 58 15 8 16.1 100.55     LegendNANA
17:00 Legend Double Dagger 18.7 10.6 59 16 13 16.1 100.51     LegendNANA
18:00 Legend Double Dagger 15.6 9.8 68 17 13 16.1 100.53     LegendNANA
19:00 Legend Double Dagger 13.8 9.7 76 17 13 16.1 100.56     LegendNANA
20:00 Legend Double Dagger 12.6 9.2 80 18 11 16.1 100.62     LegendNANA
21:00 Legend Double Dagger 11.7 9.0 83 16 8 16.1 100.64     LegendNANA
22:00 Legend Double Dagger 10.9 9.5 91 16 5 16.1 100.69     LegendNANA
23:00 Legend Double Dagger 9.9 9.1 95 19 9 16.1 100.70     LegendNANA

Notes on Data Quality.

Legend

  • E = Estimated
  • M = Missing
  • NA = Not Available
  • ‡ = Partner data that is not subject to review by the National Climate Archives
Date modified: